Flag for Austria Weather past 2 weeks in Graz, Styria, Austria

Now
64 °F

Snow. Fog.


Feels Like: 64 °F
Forecast: 62 / 88 °F
Wind: 1 mph from North

Location: Graz-Thalerhof-Flughafen

Current Time: Aug 30, 2015 at 1:54:59 AM

Latest Report: Aug 30, 2015 at 1:20 AM


Visibility: N/A

Pressure: 30.21 "Hg

Humidity: 94%

Dew point: 63 °F

Location of GrazLocation

Historic Weather in Graz — Graph

°F

Graz temperature yesterday

Maximum temperature yesterday: 88 °F (at 1:50 PM)
Minimum temperature yesterday: 61 °F (at 5:50 AM)
Average temperature yesterday: 74 °F

Past Weeks' High & Low Weather Summary

 TemperatureHumidityPressure
High88 °F (Aug 15, 2:20 PM)100% (Aug 17, 3:20 AM)30.24 "Hg (Aug 17, 3:20 AM)
Low50 °F (Aug 22, 6:20 AM)33% (Aug 15, 1:20 PM)29.71 "Hg (Aug 16, 6:20 PM)
Average67 °F77%30.01 "Hg
* Reported Aug 15 12:20 AM — Aug 30 12:50 AM, Graz, Weather by CustomWeather, © 2015

Note: Actual official high and low records may vary slightly from our data, if they occured in-between our weather recording intervals... More about our weather records

Advertising

Graz weather history for previous 24 hours

 ConditionsComfort  
Time TempWeatherWind HumidityBarometerVisibility
12:50 AM
Sun, Aug 30
64 °FClear.No wind94%30.21 "Hg5 mi
12:20 AM64 °FMild.No wind94%30.21 "HgN/A
11:50 PM
Sat, Aug 29
66 °FMild.1 mph94%30.21 "HgN/A
10:50 PM68 °FClear.1 mph88%30.21 "Hg10 mi
10:20 PM68 °FClear.1 mph88%30.21 "Hg10 mi
9:50 PM70 °FClear.2 mph83%30.21 "Hg10 mi
9:20 PM72 °FClear.2 mph83%30.21 "Hg10 mi
8:50 PM73 °FClear.2 mph78%30.18 "Hg10 mi
8:20 PM75 °FSunny.2 mph69%30.18 "Hg10 mi
7:50 PM77 °FSunny.No wind65%30.18 "Hg10 mi
7:20 PM79 °FSunny.1 mph58%30.18 "Hg10 mi
6:50 PM82 °FSunny.2 mph55%30.18 "Hg10 mi
6:20 PM82 °FSunny.3 mph48%30.18 "Hg10 mi
5:50 PM82 °FPassing clouds.3 mph55%30.18 "HgN/A
5:20 PM82 °FPassing clouds.2 mph58%30.18 "HgN/A
4:50 PM84 °FPassing clouds.3 mph45%30.18 "HgN/A
4:20 PM84 °FPassing clouds.3 mph48%30.18 "HgN/A
3:50 PM82 °FPassing clouds.2 mph55%30.21 "HgN/A
3:20 PM84 °FPassing clouds.3 mph48%30.21 "HgN/A
2:50 PM84 °FPassing clouds.5 mph45%30.21 "HgN/A
2:20 PM86 °FPassing clouds.3 mph46%30.21 "HgN/A
1:50 PM88 °FPassing clouds.3 mph46%30.21 "HgN/A
1:20 PM86 °FSunny.2 mph46%30.21 "Hg10 mi
12:50 PM86 °FPassing clouds.3 mph52%30.24 "HgN/A
11:50 AM82 °FSunny.2 mph58%30.24 "Hg10 mi
11:20 AM82 °FSunny.1 mph58%30.24 "Hg10 mi
10:50 AM81 °FWarm.1 mph58%30.24 "HgN/A
9:50 AM75 °FMild.2 mph74%30.21 "HgN/A
9:20 AM73 °FPassing clouds.5 mph74%30.21 "HgN/A
8:50 AM72 °FSunny.2 mph78%30.21 "Hg10 mi
7:50 AM66 °FSunny.2 mph88%30.21 "Hg10 mi
7:20 AM64 °FSunny.1 mph94%30.21 "Hg10 mi
6:50 AM63 °FClear.1 mph94%30.18 "Hg10 mi
5:50 AM61 °FFog.2 mph100%30.18 "HgN/A
4:50 AM63 °FFog.1 mph94%30.18 "Hg3 mi
4:20 AM63 °FFog.1 mph94%30.18 "Hg3 mi
3:50 AM63 °FLight fog.2 mph100%30.18 "Hg1 mi
3:20 AM64 °FLight fog.1 mph94%30.18 "Hg1 mi
2:50 AM64 °FMild.1 mph100%30.18 "Hg4 mi
2:20 AM64 °FMild.1 mph100%30.18 "Hg4 mi
1:50 AM66 °FMild.1 mph94%30.18 "Hg4 mi
1:20 AM64 °FFog.2 mph100%30.18 "Hg3 mi
Weather by CustomWeather, © 2015

See weather overviewHow to use our weather pages